Location: Unspecified
(60.3052°N, 5.3304°E)
Time: 02:31:44
(UTC+02:00)

ISS - Visible Passes

Search period start: 17 July 2019 00:00
Search period end: 27 July 2019 00:00
Orbit: 409 x 418 km, 51.6° (Epoch: 17 July)

Date Brightness Start Highest point End Pass type
(mag) Time Alt. Az. Time Alt. Az. Time Alt. Az.
17 Jul -2.0 00:44:12 10° SSW 00:46:07 14° SSE 00:48:01 10° SE visible
17 Jul -2.3 02:19:33 10° SW 02:21:58 19° S 02:24:24 10° SE visible
18 Jul -2.3 01:30:29 10° SW 01:32:54 19° S 01:35:19 10° SE visible
18 Jul -2.1 03:06:45 10° SW 03:08:46 15° SSW 03:10:48 10° SSE visible
19 Jul -2.3 00:41:30 10° SW 00:43:49 18° S 00:46:09 10° SE visible
19 Jul -2.2 02:17:27 10° SW 02:19:43 17° S 02:21:58 10° SSE visible
20 Jul -2.3 01:28:15 10° SW 01:30:38 18° S 01:33:01 10° SE visible
20 Jul -1.8 03:05:22 10° SW 03:06:25 11° SSW 03:07:27 10° S visible
21 Jul -2.3 00:39:05 10° SW 00:41:32 19° S 00:43:58 10° SE visible
21 Jul -1.9 02:15:38 10° SW 02:17:22 14° SSW 02:18:02 13° S visible
21 Jul -2.2 23:50:01 10° SW 23:52:25 19° S 23:54:49 10° SE visible
22 Jul -2.1 01:26:11 10° SW 01:28:18 16° SSW 01:29:25 14° S visible
23 Jul -2.2 00:36:52 10° SW 00:39:11 18° S 00:41:11 11° SSE visible
23 Jul -2.2 23:47:38 10° SW 23:50:03 19° S 23:52:28 10° SE visible
24 Jul -1.7 01:24:32 10° SW 01:25:51 12° SSW 01:25:55 12° SSW visible
25 Jul -1.8 00:34:53 10° SW 00:36:45 14° SSW 00:37:57 12° S visible
25 Jul -1.9 23:45:26 10° SW 23:47:37 16° SSW 23:49:49 10° SSE visible
